Location: Unspecified
(0.0000°N, 0.0000°E)
Time: 18:56:22
(UTC+00:00)

Hubble Space Telescope - Pass Details

Date: 02 July 2022
Orbit: 532 x 536 km, 28.5° (Epoch: 27 June)

Event Time Altitude Azimuth Distance (km) Brightness Sun altitude
Rises 19:57:30 0° 328° (NNW) 2,651 5.2 -25.9°
Reaches altitude 10° 20:00:31 10° 351° (N) 1,763 3.8 -26.6°
Enters shadow 20:01:48 14° 9° (N) 1,532 3.2 -26.9°
